Date String (YYYY-MM-DD hh:mm:ss) UTC,Instrument flags,Ambient pressure (hPa),Sample flow (lpm),Bypass flow (lpm),Sample temperature (°C),Ambient temperature (°C),ASC tube jacket temperature (°C),LED temperature (°C),Box temperature (°C),Sample RH (%),Span deviation,Mass concentration (μg/m³),Mass concentration (μg/m³),Mass concentration (μg/m³)
DateTimeUTC,F1_M11,P_M11,Q1_M11,Q2_M11,T1_M11,T2_M11,T3_M11,T4_M11,T5_M11,U1_M11,ZSPAN_M11,X0_M11,X2_M11,X1_M11
2022-01-01 04:00:00,,0815.0,5.00,0.00,22.0,21.4,00.0,31.0,23.6,10.7,0000.0,0017.36,0000.86,0000.10
2022-01-01 04:01:00,,0814.8,5.01,0.00,22.0,21.4,00.0,31.0,23.6,10.8,0000.0,0017.31,0000.80,0000.10
2022-01-01 04:02:00,,0815.1,4.99,0.00,21.9,21.3,00.0,31.0,23.5,10.7,0000.0,0016.93,0000.79,0000.10
2022-01-01 04:03:00,,0815.1,5.01,0.00,21.9,21.2,00.0,31.0,23.4,10.5,0000.0,0016.93,0000.80,0000.10
2022-01-01 04:04:00,,0814.8,4.99,0.00,21.8,21.1,00.0,30.9,23.4,10.4,0000.0,0016.21,0000.79,0000.10
2022-01-01 04:05:00,,0814.8,5.01,0.00,21.8,21.1,00.0,30.9,23.3,10.4,0000.0,0014.49,0000.71,0000.09
2022-01-01 04:06:00,,0815.1,4.99,0.00,21.7,21.0,00.0,30.9,23.3,10.5,0000.0,0013.80,0000.69,0000.08
2022-01-01 04:07:00,,0814.8,5.01,0.00,21.7,21.0,00.0,30.9,23.2,10.5,0000.0,0013.25,0000.71,0000.08
2022-01-01 04:08:00,,0814.8,5.00,0.00,21.7,21.4,00.0,30.9,23.4,10.5,0000.0,0011.05,0000.66,0000.09
2022-01-01 04:09:00,,0814.9,5.01,0.00,21.9,22.3,00.0,30.9,23.7,10.4,0000.0,0009.70,0000.76,0000.10
2022-01-01 04:10:00,,0814.9,4.98,0.00,22.0,23.0,00.0,31.0,24.0,10.2,0000.0,0009.02,0000.77,0000.10
2022-01-01 04:11:00,,0814.9,5.02,0.00,22.1,22.9,00.0,31.0,24.0,10.1,0000.0,0008.69,0000.80,0000.10
2022-01-01 04:12:00,,0814.9,5.00,0.00,22.1,22.5,00.0,31.0,23.9,10.1,0000.0,0008.66,0000.81,0000.11
2022-01-01 04:13:00,,0814.9,5.00,0.00,22.1,22.2,00.0,31.0,23.8,10.2,0000.0,0009.27,0000.86,0000.11
2022-01-01 04:14:00,,0814.9,4.99,0.00,22.1,21.9,00.0,31.0,23.7,10.3,0000.0,0009.76,0000.88,0000.11
2022-01-01 04:15:00,,0814.9,5.01,0.00,22.0,21.8,00.0,31.0,23.7,10.5,0000.0,0010.00,0000.89,0000.11
2022-01-01 04:16:00,,0814.9,4.98,0.00,22.0,21.6,00.0,31.0,23.6,10.5,0000.0,0010.01,0000.88,0000.11
2022-01-01 04:17:00,,0814.9,5.00,0.00,21.9,21.5,00.0,31.0,23.5,10.3,0000.0,0008.94,0000.78,0000.10
2022-01-01 04:18:00,,0814.9,4.99,0.00,21.9,21.4,00.0,31.0,23.5,10.5,0000.0,0008.43,0000.74,0000.09
2022-01-01 04:19:00,,0814.9,5.01,0.00,21.9,21.3,00.0,31.0,23.4,10.6,0000.0,0009.50,0000.77,0000.09
2022-01-01 04:20:00,,0814.9,5.00,0.00,21.8,21.2,00.0,31.0,23.3,11.0,0000.0,0009.57,0000.72,0000.07
2022-01-01 04:21:00,,0814.9,5.00,0.00,21.8,21.2,00.0,30.9,23.3,10.6,0000.0,0010.11,0000.71,0000.07
2022-01-01 04:22:00,,0814.9,5.00,0.00,21.7,21.1,00.0,30.9,23.3,10.4,0000.0,0010.72,0000.71,0000.07
2022-01-01 04:23:00,,0814.9,5.02,0.00,21.7,21.0,00.0,30.9,23.2,10.5,0000.0,0010.86,0000.73,0000.06
2022-01-01 04:24:00,,0814.9,4.99,0.00,21.7,20.9,00.0,30.9,23.2,10.3,0000.0,0010.55,0000.72,0000.07
2022-01-01 04:25:00,,0814.9,5.00,0.00,21.7,21.2,00.0,30.9,23.3,10.4,0000.0,0010.26,0000.71,0000.07
2022-01-01 04:26:00,,0814.9,5.00,0.00,21.8,22.1,00.0,30.9,23.6,10.5,0000.0,0010.09,0000.70,0000.07
2022-01-01 04:27:00,,0814.9,5.00,0.00,22.0,22.9,00.0,31.0,24.0,10.3,0000.0,0009.78,0000.68,0000.06
2022-01-01 04:28:00,,0814.9,5.01,0.00,22.1,22.9,00.0,31.0,24.0,10.2,0000.0,0010.28,0000.68,0000.06
2022-01-01 04:29:00,,0814.9,4.99,0.00,22.1,22.6,00.0,31.0,23.9,10.0,0000.0,0010.16,0000.66,0000.06
2022-01-01 04:30:00,,0814.9,5.01,0.00,22.1,22.3,00.0,31.0,23.8,10.1,0000.0,0010.34,0000.71,0000.06
2022-01-01 04:31:00,,0814.9,5.00,0.00,22.0,22.1,00.0,31.0,23.7,10.0,0000.0,0011.31,0000.68,0000.06
2022-01-01 04:32:00,,0814.9,4.99,0.00,22.0,21.9,00.0,31.0,23.6,10.0,0000.0,0010.95,0000.65,0000.06
2022-01-01 04:33:00,,0814.9,5.01,0.00,22.0,21.7,00.0,31.0,23.5,10.1,0000.0,0011.34,0000.61,0000.06
2022-01-01 04:34:00,,0814.9,4.99,0.00,21.9,21.5,00.0,31.0,23.4,10.4,0000.0,0012.02,0000.65,0000.06
2022-01-01 04:35:00,,0814.9,5.02,0.00,21.9,21.4,00.0,31.0,23.4,10.8,0000.0,0012.21,0000.69,0000.07
2022-01-01 04:36:00,,0814.9,4.99,0.00,21.8,21.2,00.0,31.0,23.4,10.7,0000.0,0011.63,0000.69,0000.07
2022-01-01 04:37:00,,0814.9,4.99,0.00,21.8,21.2,00.0,30.9,23.3,10.7,0000.0,0012.01,0000.70,0000.07
2022-01-01 04:38:00,,0814.9,4.99,0.00,21.7,21.1,00.0,30.9,23.3,10.4,0000.0,0011.92,0000.69,0000.08
2022-01-01 04:39:00,,0814.9,5.01,0.00,21.7,21.1,00.0,30.9,23.2,10.6,0000.0,0011.60,0000.73,0000.08
2022-01-01 04:40:00,,0814.9,5.00,0.00,21.7,21.1,00.0,30.9,23.2,10.8,0000.0,0011.16,0000.70,0000.08
2022-01-01 04:41:00,,0814.9,5.00,0.00,21.8,21.9,00.0,30.9,23.5,10.9,0000.0,0010.11,0000.59,0000.07
2022-01-01 04:42:00,,0814.9,5.01,0.00,21.9,22.7,00.0,31.0,23.8,10.8,0000.0,0010.29,0000.64,0000.07
2022-01-01 04:43:00,,0814.9,5.00,0.00,22.1,23.0,00.0,31.0,24.0,10.5,0000.0,0010.32,0000.65,0000.07
2022-01-01 04:44:00,,0815.1,5.00,0.00,22.1,22.7,00.0,31.0,24.0,10.1,0000.0,0009.91,0000.66,0000.07
2022-01-01 04:45:00,,0815.0,4.99,0.00,22.1,22.4,00.0,31.0,23.9,10.2,0000.0,0009.40,0000.67,0000.07
2022-01-01 04:46:00,,0815.0,5.01,0.00,22.1,22.1,00.0,31.0,23.7,10.2,0000.0,0009.46,0000.60,0000.07
2022-01-01 04:47:00,,0815.0,4.99,0.00,22.0,21.9,00.0,31.0,23.6,10.0,0000.0,0009.77,0000.60,0000.07
2022-01-01 04:48:00,,0815.1,5.00,0.00,22.0,21.7,00.0,31.0,23.6,09.9,0000.0,0010.13,0000.65,0000.08
2022-01-01 04:49:00,,0815.0,4.99,0.00,21.9,21.6,00.0,31.0,23.5,10.0,0000.0,0010.28,0000.70,0000.08
2022-01-01 04:50:00,,0814.9,5.01,0.00,21.9,21.3,00.0,31.0,23.5,10.0,0000.0,0010.62,0000.70,0000.08
2022-01-01 04:51:00,,0814.9,5.00,0.00,21.9,21.1,00.0,31.0,23.4,10.2,0000.0,0011.63,0000.73,0000.09
2022-01-01 04:52:00,,0815.0,4.99,0.00,21.8,20.9,00.0,31.0,23.4,10.1,0000.0,0011.82,0000.74,0000.09
2022-01-01 04:53:00,,0814.9,5.00,0.00,21.8,20.7,00.0,30.9,23.3,10.2,0000.0,0009.83,0000.58,0000.08
2022-01-01 04:54:00,,0814.9,4.99,0.00,21.7,20.7,00.0,30.9,23.2,10.2,0000.0,0010.40,0000.73,0000.09
2022-01-01 04:55:00,,0814.9,5.01,0.00,21.7,20.7,00.0,30.9,23.2,10.2,0000.0,0010.26,0000.74,0000.09
2022-01-01 04:56:00,,0814.9,5.00,0.00,21.7,21.2,00.0,30.9,23.3,10.1,0000.0,0009.89,0000.70,0000.09
2022-01-01 04:57:00,,0814.9,5.00,0.00,21.8,22.1,00.0,30.9,23.6,10.2,0000.0,0009.22,0000.73,0000.08
2022-01-01 04:58:00,,0814.9,5.00,0.00,22.0,22.9,00.0,30.9,23.9,10.1,0000.0,0008.36,0000.71,0000.07
2022-01-01 04:59:00,,0814.9,5.01,0.00,22.1,22.8,00.0,31.0,23.9,10.0,0000.0,0007.80,0000.64,0000.06
